(87427) = 2000 QE102

Discovered at Socorro on 2000-08-28 by LINEAR.

Orbit

Orbit type: Main Belt

Note: WebGL enabled browser required.

epoch2024-03-31.0
epoch JD2460400.5
perihelion date2021-09-22.30924
perihelion JD2459479.80924
argument of perihelion (°)240.47523
ascending node (°)141.53729
inclination (°)10.54920
eccentricity0.2211358
perihelion distance (AU)2.0195918
Tisserand w.r.t. Jupiter3.4
ΔV w.r.t. Earth (km/sec)9.5
semimajor axis (AU)2.5929959
mean anomaly (°)217.32760
mean daily motion (°/day)0.23604840
aphelion distance (AU)3.166
period (years)4.18
P-vector [x]0.91795406
P-vector [y]0.39668327
P-vector [z]-0.00165012
Q-vector [x]-0.37999010
Q-vector [y]0.88050376
Q-vector [z]0.28340897
absolute magnitude15.37
phase slope0.15
uncertainty0
referenceMPEC 2024-E190
observations used1216
oppositions18
arc length (days)8627
first opposition used2000
last opposition used2024
residual rms (arc-secs)0.67
perturbers coarse indicatorM-v
perturbers precise indicator003Ek
first observation date used2000-07-07.0
last observation date used2024-02-19.0
computer nameMPCLINUX
JD of orbit computation2456731.593260
perihelion JD uncertainty (days)8.3706E-05
argument of perihelion uncertainty (°)3.1886E-05
ascending node uncertainty (°)2.5195E-05
inclination uncertainty (°)7.5908E-06
eccentricity uncertainty 5.5756E-08
perihelion distance uncertainty (AU)1.4131E-07
Minimum Orbit Intersection Distances (in AU)
for orbit epoch: 2460400.5, reference: E2024-EJ0
Mercury1.67869
Venus1.30101
Earth1.0449
Mars0.64949
Jupiter2.35144
Saturn6.38766
Uranus15.3742
Neptune27.4931

Observations

1236 total observations over interval: 2000 07 07.38452 – 2024 02 19.652083
These data are available for download (format description).

Date (UT) J2000 RA J2000 Dec Magn Location Ref
2000 07 07.38452 00 15 13.41 -01 46 59.5 19.0   704 – Lincoln Laboratory ETS, New Mexico MPS 19343
2000 07 07.39681 00 15 14.17 -01 46 58.4 19.1   704 – Lincoln Laboratory ETS, New Mexico MPS 19343
2000 07 07.40914 00 15 15.06 -01 46 57.6 18.7   704 – Lincoln Laboratory ETS, New Mexico MPS 19343
2000 07 07.42129 00 15 15.89 -01 46 57.1 19.0   704 – Lincoln Laboratory ETS, New Mexico MPS 19343
2000 07 07.43359 00 15 16.81 -01 46 55.4 18.7   704 – Lincoln Laboratory ETS, New Mexico MPS 19343
2000 08 28.30539 00 48 56.65 -05 32 28.1 18.6   704 – Lincoln Laboratory ETS, New Mexico MPS 18229
2000 08 28.33747 00 48 56.51 -05 32 47.7 18.7   704 – Lincoln Laboratory ETS, New Mexico MPS 18229
2000 08 28.36864 00 48 56.36 -05 33 06.8 18.9   704 – Lincoln Laboratory ETS, New Mexico MPS 18229
2000 08 31.39235 00 48 43.32 -06 04 58.6 17.7   704 – Lincoln Laboratory ETS, New Mexico MPS 18229
2000 08 31.40548 00 48 43.18 -06 05 07.2 18.2   704 – Lincoln Laboratory ETS, New Mexico MPS 18229
2000 08 31.41972 00 48 43.04 -06 05 16.3 19.1   704 – Lincoln Laboratory ETS, New Mexico MPS 18229
2000 08 31.43295 00 48 42.95 -06 05 24.8 18.6   704 – Lincoln Laboratory ETS, New Mexico MPS 18229
2000 08 31.44646 00 48 42.79 -06 05 34.2 18.8   704 – Lincoln Laboratory ETS, New Mexico MPS 18229
2000 09 20.50406 00 41 12.75 -09 59 13.8 17.3   608 – Haleakala-AMOS MPS 19343
2000 09 20.51557 00 41 12.32 -09 59 21.7 17.5   608 – Haleakala-AMOS MPS 19343
2000 09 20.52684 00 41 11.88 -09 59 29.8 17.4   608 – Haleakala-AMOS MPS 19343
2000 09 21.27038 00 40 45.99 -10 08 09.1 17.6   704 – Lincoln Laboratory ETS, New Mexico MPS 19343
2000 09 21.28536 00 40 45.41 -10 08 19.3 17.9   704 – Lincoln Laboratory ETS, New Mexico MPS 19343
2000 09 21.30090 00 40 44.77 -10 08 30.2 17.7   704 – Lincoln Laboratory ETS, New Mexico MPS 19343
2000 09 23.33300 00 39 30.25 -10 31 46.5 16.6 R 699 – Lowell Observatory-LONEOS MPS 30069
2000 09 23.34843 00 39 29.63 -10 31 57.4   699 – Lowell Observatory-LONEOS MPS 30069
2000 09 23.36388 00 39 29.04 -10 32 07.9   699 – Lowell Observatory-LONEOS MPS 30069
2000 09 23.37931 00 39 28.40 -10 32 17.9   699 – Lowell Observatory-LONEOS MPS 30069
2000 09 26.325760 00 37 35.489 -11 05 00.08 17.58 V 645 – Apache Point-Sloan Digital Sky Survey MPS 79723
2000 09 26.329232 00 37 35.345 -11 05 02.36 18.42   645 – Apache Point-Sloan Digital Sky Survey MPS 79723
2000 10 01.24768 00 34 19.10 -11 55 56.8 17.1   704 – Lincoln Laboratory ETS, New Mexico MPS 19343
2000 10 01.26367 00 34 18.45 -11 56 06.5 16.1   704 – Lincoln Laboratory ETS, New Mexico MPS 19343
2000 10 01.27902 00 34 17.79 -11 56 14.9 16.0   704 – Lincoln Laboratory ETS, New Mexico MPS 19343
2000 10 01.29410 00 34 17.12 -11 56 23.8 16.3   704 – Lincoln Laboratory ETS, New Mexico MPS 19343
2000 10 01.30873 00 34 16.51 -11 56 32.5 15.9   704 – Lincoln Laboratory ETS, New Mexico MPS 19343
2000 10 02.27019 00 33 37.86 -12 05 49.8 17.3 R 699 – Lowell Observatory-LONEOS MPS 21000
2000 10 02.28947 00 33 37.04 -12 06 01.2   699 – Lowell Observatory-LONEOS MPS 21000
2000 10 02.30864 00 33 36.19 -12 06 12.2   699 – Lowell Observatory-LONEOS MPS 21000
2000 10 02.32796 00 33 35.38 -12 06 23.1   699 – Lowell Observatory-LONEOS MPS 21000
2000 10 27.21968 00 20 23.19 -14 23 54.6 17.9   704 – Lincoln Laboratory ETS, New Mexico MPS 21000
2000 10 27.23372 00 20 22.94 -14 23 56.0 18.3   704 – Lincoln Laboratory ETS, New Mexico MPS 21000
2000 10 27.24779 00 20 22.65 -14 23 56.7 18.5   704 – Lincoln Laboratory ETS, New Mexico MPS 21000
2000 10 27.26285 00 20 22.35 -14 23 58.2 19.0   704 – Lincoln Laboratory ETS, New Mexico MPS 21000
2000 10 27.27750 00 20 22.04 -14 23 59.6 19.3   704 – Lincoln Laboratory ETS, New Mexico MPS 21000
2000 11 18.15162 00 21 14.81 -13 29 33.6 18.8   704 – Lincoln Laboratory ETS, New Mexico MPS 22382
2000 11 18.16667 00 21 15.08 -13 29 28.2 18.6   704 – Lincoln Laboratory ETS, New Mexico MPS 22382
2000 11 18.18178 00 21 15.35 -13 29 23.6 19.2   704 – Lincoln Laboratory ETS, New Mexico MPS 22382
2000 11 18.19880 00 21 15.72 -13 29 18.6 19.6   704 – Lincoln Laboratory ETS, New Mexico MPS 22382
2000 11 19.13035 00 21 37.00 -13 23 53.8 18.3 R 699 – Lowell Observatory-LONEOS MPS 25137
2000 11 19.15376 00 21 37.36 -13 23 44.8   699 – Lowell Observatory-LONEOS MPS 25137
2000 11 19.17719 00 21 37.95 -13 23 37.5   699 – Lowell Observatory-LONEOS MPS 25137
2000 11 19.20069 00 21 38.40 -13 23 28.5   699 – Lowell Observatory-LONEOS MPS 25137
2000 11 29.14888 00 26 53.95 -12 13 12.5 18.4 R 699 – Lowell Observatory-LONEOS MPS 22382
2000 11 29.16524 00 26 54.54 -12 13 04.1   699 – Lowell Observatory-LONEOS MPS 22382
2000 11 29.18171 00 26 55.14 -12 12 56.3   699 – Lowell Observatory-LONEOS MPS 22382
2000 11 29.19813 00 26 55.75 -12 12 47.9   699 – Lowell Observatory-LONEOS MPS 22382
2002 01 14.46547 10 53 18.12 +08 24 17.2 19.3   704 – Lincoln Laboratory ETS, New Mexico MPS 48927
2002 01 14.49676 10 53 17.60 +08 24 27.4 19.9   704 – Lincoln Laboratory ETS, New Mexico MPS 48927
2002 01 14.52741 10 53 17.02 +08 24 37.3 19.9   704 – Lincoln Laboratory ETS, New Mexico MPS 48927
2002 02 04.37751 10 43 00.14 +10 43 35.2 19.3 R 699 – Lowell Observatory-LONEOS MPS 48927
2002 02 04.40563 10 42 58.86 +10 43 49.0   699 – Lowell Observatory-LONEOS MPS 48927
2002 02 04.43381 10 42 57.64 +10 44 02.1   699 – Lowell Observatory-LONEOS MPS 48927
2002 02 04.46207 10 42 56.25 +10 44 14.3   699 – Lowell Observatory-LONEOS MPS 48927
2002 02 06.30601 10 41 36.70 +10 59 00.8 19.8 V 333 – Desert Eagle Observatory MPS 48927
2002 02 06.32894 10 41 35.67 +10 59 11.3 20.4 V 333 – Desert Eagle Observatory MPS 48927
2002 02 06.35213 10 41 34.58 +10 59 23.3 20.0 V 333 – Desert Eagle Observatory MPS 48927
2002 02 07.28500 10 40 53.08 +11 06 57.1 20.0 V 333 – Desert Eagle Observatory MPS 48927
2002 02 07.31251 10 40 51.80 +11 07 10.2 19.3 V 333 – Desert Eagle Observatory MPS 48927
2002 02 07.32263 10 40 51.29 +11 07 15.8 19.1   704 – Lincoln Laboratory ETS, New Mexico MPS 51818
2002 02 07.33707 10 40 50.64 +11 07 21.6 19.5   704 – Lincoln Laboratory ETS, New Mexico MPS 51818
2002 02 07.33990 10 40 50.45 +11 07 23.6 19.4 V 333 – Desert Eagle Observatory MPS 48927
2002 02 07.35148 10 40 49.94 +11 07 29.2 19.5   704 – Lincoln Laboratory ETS, New Mexico MPS 51818
2002 02 07.36589 10 40 49.30 +11 07 36.3 19.2   704 – Lincoln Laboratory ETS, New Mexico MPS 51818
2002 02 07.38066 10 40 48.59 +11 07 43.2 19.1   704 – Lincoln Laboratory ETS, New Mexico MPS 51818
2002 02 10.31730 10 38 32.41 +11 31 53.4 18.6   704 – Lincoln Laboratory ETS, New Mexico MPS 48927
2002 02 10.33147 10 38 31.74 +11 32 00.5 19.3   704 – Lincoln Laboratory ETS, New Mexico MPS 48927
2002 02 10.34564 10 38 31.02 +11 32 08.0 18.9   704 – Lincoln Laboratory ETS, New Mexico MPS 48927
2002 02 10.35981 10 38 30.36 +11 32 15.2 19.1   704 – Lincoln Laboratory ETS, New Mexico MPS 48927
2002 02 10.37397 10 38 29.65 +11 32 22.1 19.2   704 – Lincoln Laboratory ETS, New Mexico MPS 48927
2002 02 16.34260 10 33 34.77 +12 22 19.8 19.6   644 – Palomar Mountain/NEAT MPS 51818
2002 02 16.41813 10 33 30.80 +12 22 58.1 19.7   644 – Palomar Mountain/NEAT MPS 51818
2002 02 16.48029 10 33 27.52 +12 23 29.0 19.7   644 – Palomar Mountain/NEAT MPS 51818
2002 02 20.24269 10 30 14.05 +12 54 58.6 19.1   704 – Lincoln Laboratory ETS, New Mexico MPS 51818
2002 02 20.25644 10 30 13.33 +12 55 05.8 19.1   704 – Lincoln Laboratory ETS, New Mexico MPS 51818
2002 02 20.27018 10 30 12.57 +12 55 12.5 19.4   704 – Lincoln Laboratory ETS, New Mexico MPS 51818
2002 02 20.28411 10 30 11.83 +12 55 19.5 19.7   704 – Lincoln Laboratory ETS, New Mexico MPS 51818
2002 02 20.29786 10 30 11.08 +12 55 26.9 19.6   704 – Lincoln Laboratory ETS, New Mexico MPS 51818
2002 02 24.27748 10 26 43.86 +13 28 09.6 19.4   644 – Palomar Mountain/NEAT MPS 51818
2002 02 24.29859 10 26 42.76 +13 28 19.1 19.2   644 – Palomar Mountain/NEAT MPS 51818
2002 02 24.32088 10 26 41.56 +13 28 30.2 19.2   644 – Palomar Mountain/NEAT MPS 51818
2002 03 12.36423 10 13 35.24 +15 25 47.6 20.5   644 – Palomar Mountain/NEAT MPS 51818
2002 03 12.38978 10 13 34.09 +15 25 57.3 21.1   644 – Palomar Mountain/NEAT MPS 51818
